星链-31267 (STARLINK-31267 )

导读 | 星芒AI

STARLINK-31267 是 SpaceX Starlink 项目中的一颗低轨通信卫星,属于第三代星链卫星(v1.5 或 v2 构型)。该卫星于 2023 年发射,部署在约 550 公里的近地轨道上,旨在为全球提供高速互联网服务。它采用先进的相控阵天线和激光通信技术,具备更高的带宽和更低的延迟。作为 Starlink 卫星群的一部分,STARLINK-31267 支持全球范围内的宽带连接,尤其在偏远和网络基础设施薄弱的地区发挥重要作用。

基本信息
目录编号:
59468
目录名称:
STARLINK-31267
国际标识:
2024-068P
轨道中心:
EARTH
卫星名称:
星链-31267
卫星全名:
星链-31267 (STARLINK-31267 )
卫星状态:
在轨 (已飞行576 天)
发射日期:
2024-04-10 UTC
国别 :
美国 (US)
星等 :
--
轨道信息
数据来源 国际轨道数据
星历时间: 2025-11-06T20:23:32+0800
1天前
查看轨道信息
半长轴: 6861.082km
偏心率: 0.0001237
轨道倾角: 43.001°
近地点辐角 266.206°
升交点赤经 5.917°
平近点角 93.865°
近地点: 482.098km
远地点: 483.796km
周期: 94.265分钟
每日圈数: 15.276148
详细信息
固有亮度:
5
最大亮度:
1.5
卫星平台:
Starlink v2.0 mini
覆盖范围:
全球
运营商:
太空探索技术公司
运营商所在国:
美国
制造商(研发单位):
太空探索技术公司
制造商所在国:
美国
使用方式:
暂无
卫星简介
星链(Starlink)计划是由太空探索技术公司(SpaceX)提出的一个巨型低轨卫星互联网星座项目,计划在2019年至2024年间在太空搭建由约1.2万颗卫星组成的“星链”网络,其中1584颗将部署在地球上空550千米处的近地轨道,并从2020年开始工作。该卫星仍在工作。
2D轨道图
3D轨道图
轨道高度分析图
轨道倾角分析图
轨道综合分析图
查看轨道综合分析图